(°C)
14°
14°
14°
14°
14°
14°
14°
(°C)
11°
10°
10°
N
N
N
N
N
N
N
(km/h)
17-23
18-24
19-26
20-28
21-30
22-33
23-34
(mm)
3
3
1.4
1.4
0
0
0
(%)
26
35
49
49
34
34
34

Elevação do sol

/ 1.7°
sun-icon
UV 3
04:17
21:39
Crescente (60°)
09:34
00:05

METAR para 55.31°N 61.5°L (USCC)

Hora Condições Temperatura/
Ponto de condensação
Vento Visibilidade Tempo Nuvens Pressão Mudança Bruto
MVFR 14°C / 14°C 20º 8kt >10km Light Showers Rain 3.00mm precipitation Vertical Visibility of 0ft.
Broken Clouds 1300ft
1004 No Significant change. Runway 27: Wet or puddles, 51-100% contamination with <1mm, friction coefficient 0.40. USCC 032330Z 02004MPS 9999 -SHRA SCT006 BKN013CB 14/14 Q1004 R27/290040 NOSIG RMK QFE733
VFR 14°C / 14°C 20º 6kt >10km Light Showers Rain 3.00mm precipitation Vertical Visibility of 0ft. 1004 No Significant change. Runway 27: Wet or puddles, 51-100% contamination with <1mm, friction coefficient 0.40. USCC 032300Z 02003MPS 9999 -SHRA SCT008CB 14/14 Q1004 R27/290040 NOSIG RMK QFE733
VFR 14°C / 14°C 360º 6kt >10km Light Showers Rain 3.00mm precipitation Vertical Visibility of 0ft. 1004 No Significant change. Runway 27: Wet or puddles, 51-100% contamination with <1mm, friction coefficient 0.40. USCC 032230Z 36003MPS 9999 -SHRA SCT033CB 14/14 Q1004 R27/290040 NOSIG RMK QFE733
MVFR 14°C / 14°C 360º 6kt 5000m Light Showers Rain 3.00mm precipitation Vertical Visibility of 0ft. 1004 No Significant change. Runway 27: Wet or puddles, 51-100% contamination with <1mm, friction coefficient 0.40. USCC 032200Z 36003MPS 5000 -SHRA SCT033CB 14/14 Q1004 R27/290040 NOSIG RMK QFE733
VFR 14°C / 14°C 360º 8kt >10km Light Showers Rain 3.00mm precipitation Vertical Visibility of 0ft. 1005 No Significant change. Runway 27: Wet or puddles, 51-100% contamination with <1mm, friction coefficient 0.40. USCC 032130Z 36004MPS 9999 -SHRA SCT033CB 14/14 Q1005 R27/290040 NOSIG RMK QFE734
VFR 14°C / 14°C 360º 4kt >10km - Scattered Clouds 3300ft 1005 No Significant change. Runway 27: Wet or puddles, 51-100% contamination with <1mm, friction coefficient 0.40. USCC 032100Z 36002MPS 9999 SCT033CB 14/14 Q1005 R27/290040 NOSIG RMK QFE734
VFR 14°C / 14°C 360º 4kt >10km - Scattered Clouds 3300ft 1005 No Significant change. Runway 27: Wet or puddles, 51-100% contamination with <1mm, friction coefficient 0.40. USCC 032030Z 36002MPS 9999 SCT033CB 14/14 Q1005 R27/290040 NOSIG RMK QFE734
MVFR 14°C / 14°C 340º 6kt 6000m Light Showers Rain 3.00mm precipitation Vertical Visibility of 0ft. 1005 No Significant change. Runway 27: Wet or puddles, 51-100% contamination with <1mm, friction coefficient 0.40. USCC 032000Z 34003MPS 6000 -SHRA SCT033CB 14/14 Q1005 R27/290040 NOSIG RMK QFE734
MVFR 14°C / 14°C 330º 6kt 5000m Light Showers Rain 3.00mm precipitation Vertical Visibility of 0ft. 1006 No Significant change. Runway 27: Wet or puddles, 51-100% contamination with <1mm, friction coefficient 0.40. USCC 031930Z 33003MPS 5000 -SHRA SCT033CB 14/14 Q1006 R27/290040 NOSIG RMK QFE734
MVFR 14°C / 14°C 20º 6kt 5000m Light Showers Rain 3.00mm precipitation Vertical Visibility of 0ft. 1006 No Significant change. Runway 09: Wet or puddles, 51-100% contamination with <1mm, friction coefficient 0.40. USCC 031900Z 02003MPS 5000 -SHRA SCT033CB 14/14 Q1006 R09/290040 NOSIG RMK QFE734
IFR 14°C / 14°C 350º 8kt 4700m Light Showers Rain 3.00mm precipitation Vertical Visibility of 0ft. 1006 No Significant change. Runway 09: Wet or puddles, 51-100% contamination with <1mm, friction coefficient 0.40. USCC 031830Z 35004MPS 4700 -SHRA SCT030CB 14/14 Q1006 R09/290040 NOSIG RMK QFE734
MVFR 14°C / 14°C 340º 6kt 5000m Light Showers Rain 3.00mm precipitation Vertical Visibility of 0ft. 1006 No Significant change. Runway 09: Wet or puddles, 51-100% contamination with <1mm, friction coefficient 0.45. USCC 031800Z 34003MPS 5000 -SHRA SCT030CB 14/14 Q1006 R09/290045 NOSIG RMK QFE734
MVFR 14°C / 14°C 10º 6kt 6000m Light Thunderstorm Rain 3.00mm precipitation Vertical Visibility of 0ft. 1006 No Significant change. Runway 09: Wet or puddles, 51-100% contamination with <1mm, friction coefficient 0.45. USCC 031730Z 01003MPS 6000 -TSRA SCT030CB 14/14 Q1006 R09/290045 NOSIG RMK QFE734
MVFR 15°C / 15°C 340º 8kt 5000m Light Thunderstorm Rain 3.00mm precipitation Vertical Visibility of 0ft. 1006 No Significant change. Runway 27: Wet or puddles, 51-100% contamination with <1mm, friction coefficient 0.45. USCC 031700Z 34004MPS 5000 -TSRA SCT030CB 15/15 Q1006 R27/290045 NOSIG RMK QFE735
MVFR 16°C / 13°C 360º 8kt 6000m Light Thunderstorm Rain 3.00mm precipitation Vertical Visibility of 0ft. 1006 No Significant change. Runway 27: Wet or puddles, 51-100% contamination with <1mm, friction coefficient 0.50. USCC 031630Z 36004MPS 6000 -TSRA SCT030CB 16/13 Q1006 R27/290050 NOSIG RMK QFE734
VFR 16°C / 12°C 290º 12kt >10km Light Thunderstorm Rain 3.00mm precipitation Vertical Visibility of 0ft. 1005 No Significant change. Runway 27: Wet or puddles, 51-100% contamination with <1mm, friction coefficient 0.50. USCC 031600Z 29006MPS 9999 -TSRA SCT030CB 16/12 Q1005 R27/290050 NOSIG RMK QFE734
MVFR 17°C / 13°C 290º 8kt 5000m Light Showers Rain 3.00mm precipitation Vertical Visibility of 0ft. 1005 No Significant change. Runway 27: Wet or puddles, 51-100% contamination with <1mm, friction coefficient 0.50. USCC 031530Z 29004MPS 5000 -SHRA SCT030CB 17/13 Q1005 R27/290050 NOSIG RMK QFE734
VFR 18°C / 12°C 150º 6kt >10km - Scattered Clouds 3000ft 1005 No Significant change. Runway 09: Wet or puddles, 51-100% contamination with <1mm, friction coefficient 0.50. USCC 031500Z 15003MPS 9999 SCT030CB 18/12 Q1005 RETSRA R09/290050 NOSIG RMK QFE733
VFR 17°C / 12°C 140º 10kt >10km Light Thunderstorm Rain 3.00mm precipitation Vertical Visibility of 0ft. 1005 Temporary: 30014MPS Visibility 2100. Light Thunderstorm Rain . Broken Clouds 1100ft. Cumulonimbus RMK QFE734 . Runway 09: Wet or puddles, 51-100% contamination with <1mm, friction coefficient 0.50. USCC 031430Z 14005MPS 9999 -TSRA SCT030CB 17/12 Q1005 R09/290050 TEMPO 30014MPS 2100 -TSRA BKN011CB RMK QFE734
MVFR 17°C / 13°C 130º 10kt. Wind Shear present on Runway 09. 8000m Light Thunderstorm Rain 3.00mm precipitation Vertical Visibility of 0ft. 1006 Temporary: 30014MPS Visibility 2100. Light Thunderstorm Rain . Broken Clouds 1100ft. Cumulonimbus RMK QFE734 . Runway 09: Wet or puddles, 51-100% contamination with <1mm, friction coefficient 0.50. USCC 031400Z 13005MPS 8000 -TSRA SCT030CB 17/13 Q1006 WS R09 R09/290050 TEMPO 30014MPS 2100 -TSRA BKN011CB RMK QFE734
MVFR 17°C / 12°C 150º 12kt 6000m Light Thunderstorm Rain 3.00mm precipitation Vertical Visibility of 0ft. 1006 Temporary: 30014MPS Visibility 2100. Light Thunderstorm Rain . Broken Clouds 1100ft. Cumulonimbus RMK QFE734 . Runway 09: Wet or puddles, 51-100% contamination with <1mm, friction coefficient 0.50. USCC 031330Z 15006MPS 6000 2500E -TSRA SCT030CB 17/12 Q1006 R09/290050 TEMPO 30014MPS 2100 -TSRA BKN011CB RMK QFE734
MVFR 20°C / 14°C 230º 10kt 6000m Light Thunderstorm Rain 3.00mm precipitation Vertical Visibility of 0ft. 1005 Temporary: 30014MPS Visibility 2100. Light Thunderstorm Rain . Broken Clouds 1100ft. Cumulonimbus RMK QFE734 USCC 031300Z 23005MPS 6000 -TSRA SCT040CB 20/14 Q1005 R27/000060 TEMPO 30014MPS 2100 -TSRA BKN011CB RMK QFE734
VFR 24°C / 10°C 30º 2kt >10km - Scattered Clouds 4000ft 1006 No Significant change USCC 031230Z 03001MPS 9999 SCT040CB 24/10 Q1006 R27/000060 NOSIG RMK QFE734
VFR 24°C / 9°C 20º variable 340º to 050º 6kt >10km - Scattered Clouds 4000ft 1006 No Significant change USCC 031200Z 02003MPS 340V050 9999 SCT040CB 24/09 Q1006 R27/000060 NOSIG RMK QFE734

MVFR

14°C / 14°C

[Mais]
Vento 20º 8kt
Visibilidade >10km
Tempo Light Showers Rain 3.00mm precipitation
Nuvens Vertical Visibility of 0ft.
Broken Clouds 1300ft
Pressão 1004
Mudança No Significant change. Runway 27: Wet or puddles, 51-100% contamination with <1mm, friction coefficient 0.40.
Bruto USCC 032330Z 02004MPS 9999 -SHRA SCT006 BKN013CB 14/14 Q1004 R27/290040 NOSIG RMK QFE733

VFR

14°C / 14°C

[Mais]
Vento 20º 6kt
Visibilidade >10km
Tempo Light Showers Rain 3.00mm precipitation
Nuvens Vertical Visibility of 0ft.
Pressão 1004
Mudança No Significant change. Runway 27: Wet or puddles, 51-100% contamination with <1mm, friction coefficient 0.40.
Bruto USCC 032300Z 02003MPS 9999 -SHRA SCT008CB 14/14 Q1004 R27/290040 NOSIG RMK QFE733

VFR

14°C / 14°C

[Mais]
Vento 360º 6kt
Visibilidade >10km
Tempo Light Showers Rain 3.00mm precipitation
Nuvens Vertical Visibility of 0ft.
Pressão 1004
Mudança No Significant change. Runway 27: Wet or puddles, 51-100% contamination with <1mm, friction coefficient 0.40.
Bruto USCC 032230Z 36003MPS 9999 -SHRA SCT033CB 14/14 Q1004 R27/290040 NOSIG RMK QFE733

MVFR

14°C / 14°C

[Mais]
Vento 360º 6kt
Visibilidade 5000m
Tempo Light Showers Rain 3.00mm precipitation
Nuvens Vertical Visibility of 0ft.
Pressão 1004
Mudança No Significant change. Runway 27: Wet or puddles, 51-100% contamination with <1mm, friction coefficient 0.40.
Bruto USCC 032200Z 36003MPS 5000 -SHRA SCT033CB 14/14 Q1004 R27/290040 NOSIG RMK QFE733

VFR

14°C / 14°C

[Mais]
Vento 360º 8kt
Visibilidade >10km
Tempo Light Showers Rain 3.00mm precipitation
Nuvens Vertical Visibility of 0ft.
Pressão 1005
Mudança No Significant change. Runway 27: Wet or puddles, 51-100% contamination with <1mm, friction coefficient 0.40.
Bruto USCC 032130Z 36004MPS 9999 -SHRA SCT033CB 14/14 Q1005 R27/290040 NOSIG RMK QFE734

VFR

14°C / 14°C

[Mais]
Vento 360º 4kt
Visibilidade >10km
Tempo -
Nuvens Scattered Clouds 3300ft
Pressão 1005
Mudança No Significant change. Runway 27: Wet or puddles, 51-100% contamination with <1mm, friction coefficient 0.40.
Bruto USCC 032100Z 36002MPS 9999 SCT033CB 14/14 Q1005 R27/290040 NOSIG RMK QFE734

VFR

14°C / 14°C

[Mais]
Vento 360º 4kt
Visibilidade >10km
Tempo -
Nuvens Scattered Clouds 3300ft
Pressão 1005
Mudança No Significant change. Runway 27: Wet or puddles, 51-100% contamination with <1mm, friction coefficient 0.40.
Bruto USCC 032030Z 36002MPS 9999 SCT033CB 14/14 Q1005 R27/290040 NOSIG RMK QFE734

MVFR

14°C / 14°C

[Mais]
Vento 340º 6kt
Visibilidade 6000m
Tempo Light Showers Rain 3.00mm precipitation
Nuvens Vertical Visibility of 0ft.
Pressão 1005
Mudança No Significant change. Runway 27: Wet or puddles, 51-100% contamination with <1mm, friction coefficient 0.40.
Bruto USCC 032000Z 34003MPS 6000 -SHRA SCT033CB 14/14 Q1005 R27/290040 NOSIG RMK QFE734

MVFR

14°C / 14°C

[Mais]
Vento 330º 6kt
Visibilidade 5000m
Tempo Light Showers Rain 3.00mm precipitation
Nuvens Vertical Visibility of 0ft.
Pressão 1006
Mudança No Significant change. Runway 27: Wet or puddles, 51-100% contamination with <1mm, friction coefficient 0.40.
Bruto USCC 031930Z 33003MPS 5000 -SHRA SCT033CB 14/14 Q1006 R27/290040 NOSIG RMK QFE734

MVFR

14°C / 14°C

[Mais]
Vento 20º 6kt
Visibilidade 5000m
Tempo Light Showers Rain 3.00mm precipitation
Nuvens Vertical Visibility of 0ft.
Pressão 1006
Mudança No Significant change. Runway 09: Wet or puddles, 51-100% contamination with <1mm, friction coefficient 0.40.
Bruto USCC 031900Z 02003MPS 5000 -SHRA SCT033CB 14/14 Q1006 R09/290040 NOSIG RMK QFE734

IFR

14°C / 14°C

[Mais]
Vento 350º 8kt
Visibilidade 4700m
Tempo Light Showers Rain 3.00mm precipitation
Nuvens Vertical Visibility of 0ft.
Pressão 1006
Mudança No Significant change. Runway 09: Wet or puddles, 51-100% contamination with <1mm, friction coefficient 0.40.
Bruto USCC 031830Z 35004MPS 4700 -SHRA SCT030CB 14/14 Q1006 R09/290040 NOSIG RMK QFE734

MVFR

14°C / 14°C

[Mais]
Vento 340º 6kt
Visibilidade 5000m
Tempo Light Showers Rain 3.00mm precipitation
Nuvens Vertical Visibility of 0ft.
Pressão 1006
Mudança No Significant change. Runway 09: Wet or puddles, 51-100% contamination with <1mm, friction coefficient 0.45.
Bruto USCC 031800Z 34003MPS 5000 -SHRA SCT030CB 14/14 Q1006 R09/290045 NOSIG RMK QFE734

MVFR

14°C / 14°C

[Mais]
Vento 10º 6kt
Visibilidade 6000m
Tempo Light Thunderstorm Rain 3.00mm precipitation
Nuvens Vertical Visibility of 0ft.
Pressão 1006
Mudança No Significant change. Runway 09: Wet or puddles, 51-100% contamination with <1mm, friction coefficient 0.45.
Bruto USCC 031730Z 01003MPS 6000 -TSRA SCT030CB 14/14 Q1006 R09/290045 NOSIG RMK QFE734

MVFR

15°C / 15°C

[Mais]
Vento 340º 8kt
Visibilidade 5000m
Tempo Light Thunderstorm Rain 3.00mm precipitation
Nuvens Vertical Visibility of 0ft.
Pressão 1006
Mudança No Significant change. Runway 27: Wet or puddles, 51-100% contamination with <1mm, friction coefficient 0.45.
Bruto USCC 031700Z 34004MPS 5000 -TSRA SCT030CB 15/15 Q1006 R27/290045 NOSIG RMK QFE735

MVFR

16°C / 13°C

[Mais]
Vento 360º 8kt
Visibilidade 6000m
Tempo Light Thunderstorm Rain 3.00mm precipitation
Nuvens Vertical Visibility of 0ft.
Pressão 1006
Mudança No Significant change. Runway 27: Wet or puddles, 51-100% contamination with <1mm, friction coefficient 0.50.
Bruto USCC 031630Z 36004MPS 6000 -TSRA SCT030CB 16/13 Q1006 R27/290050 NOSIG RMK QFE734

VFR

16°C / 12°C

[Mais]
Vento 290º 12kt
Visibilidade >10km
Tempo Light Thunderstorm Rain 3.00mm precipitation
Nuvens Vertical Visibility of 0ft.
Pressão 1005
Mudança No Significant change. Runway 27: Wet or puddles, 51-100% contamination with <1mm, friction coefficient 0.50.
Bruto USCC 031600Z 29006MPS 9999 -TSRA SCT030CB 16/12 Q1005 R27/290050 NOSIG RMK QFE734

MVFR

17°C / 13°C

[Mais]
Vento 290º 8kt
Visibilidade 5000m
Tempo Light Showers Rain 3.00mm precipitation
Nuvens Vertical Visibility of 0ft.
Pressão 1005
Mudança No Significant change. Runway 27: Wet or puddles, 51-100% contamination with <1mm, friction coefficient 0.50.
Bruto USCC 031530Z 29004MPS 5000 -SHRA SCT030CB 17/13 Q1005 R27/290050 NOSIG RMK QFE734

VFR

18°C / 12°C

[Mais]
Vento 150º 6kt
Visibilidade >10km
Tempo -
Nuvens Scattered Clouds 3000ft
Pressão 1005
Mudança No Significant change. Runway 09: Wet or puddles, 51-100% contamination with <1mm, friction coefficient 0.50.
Bruto USCC 031500Z 15003MPS 9999 SCT030CB 18/12 Q1005 RETSRA R09/290050 NOSIG RMK QFE733

VFR

17°C / 12°C

[Mais]
Vento 140º 10kt
Visibilidade >10km
Tempo Light Thunderstorm Rain 3.00mm precipitation
Nuvens Vertical Visibility of 0ft.
Pressão 1005
Mudança Temporary: 30014MPS Visibility 2100. Light Thunderstorm Rain . Broken Clouds 1100ft. Cumulonimbus RMK QFE734 . Runway 09: Wet or puddles, 51-100% contamination with <1mm, friction coefficient 0.50.
Bruto USCC 031430Z 14005MPS 9999 -TSRA SCT030CB 17/12 Q1005 R09/290050 TEMPO 30014MPS 2100 -TSRA BKN011CB RMK QFE734

MVFR

17°C / 13°C

[Mais]
Vento 130º 10kt. Wind Shear present on Runway 09.
Visibilidade 8000m
Tempo Light Thunderstorm Rain 3.00mm precipitation
Nuvens Vertical Visibility of 0ft.
Pressão 1006
Mudança Temporary: 30014MPS Visibility 2100. Light Thunderstorm Rain . Broken Clouds 1100ft. Cumulonimbus RMK QFE734 . Runway 09: Wet or puddles, 51-100% contamination with <1mm, friction coefficient 0.50.
Bruto USCC 031400Z 13005MPS 8000 -TSRA SCT030CB 17/13 Q1006 WS R09 R09/290050 TEMPO 30014MPS 2100 -TSRA BKN011CB RMK QFE734

MVFR

17°C / 12°C

[Mais]
Vento 150º 12kt
Visibilidade 6000m
Tempo Light Thunderstorm Rain 3.00mm precipitation
Nuvens Vertical Visibility of 0ft.
Pressão 1006
Mudança Temporary: 30014MPS Visibility 2100. Light Thunderstorm Rain . Broken Clouds 1100ft. Cumulonimbus RMK QFE734 . Runway 09: Wet or puddles, 51-100% contamination with <1mm, friction coefficient 0.50.
Bruto USCC 031330Z 15006MPS 6000 2500E -TSRA SCT030CB 17/12 Q1006 R09/290050 TEMPO 30014MPS 2100 -TSRA BKN011CB RMK QFE734

MVFR

20°C / 14°C

[Mais]
Vento 230º 10kt
Visibilidade 6000m
Tempo Light Thunderstorm Rain 3.00mm precipitation
Nuvens Vertical Visibility of 0ft.
Pressão 1005
Mudança Temporary: 30014MPS Visibility 2100. Light Thunderstorm Rain . Broken Clouds 1100ft. Cumulonimbus RMK QFE734
Bruto USCC 031300Z 23005MPS 6000 -TSRA SCT040CB 20/14 Q1005 R27/000060 TEMPO 30014MPS 2100 -TSRA BKN011CB RMK QFE734

VFR

24°C / 10°C

[Mais]
Vento 30º 2kt
Visibilidade >10km
Tempo -
Nuvens Scattered Clouds 4000ft
Pressão 1006
Mudança No Significant change
Bruto USCC 031230Z 03001MPS 9999 SCT040CB 24/10 Q1006 R27/000060 NOSIG RMK QFE734

VFR

24°C / 9°C

[Mais]
Vento 20º variable 340º to 050º 6kt
Visibilidade >10km
Tempo -
Nuvens Scattered Clouds 4000ft
Pressão 1006
Mudança No Significant change
Bruto USCC 031200Z 02003MPS 340V050 9999 SCT040CB 24/09 Q1006 R27/000060 NOSIG RMK QFE734

TAF para 55.31°N 61.5°L (USCC)

From till


From till Wind 330º 6kt. Gust 23kt. Visibility 6000m. Broken Clouds 1600ft.
Temporarly from till Wind 30º 6kt. Gust 16kt. Visibility 498.895m. Fog . Obscured Sky.
Temporarly from till Light Thunderstorm Rain . Broken Clouds 1600ft.
From till Wind 350º 6kt. Gust 25kt. Visibility 10km or more. Broken Clouds 2000ft.

Bruto: TAF AMD USCC 032338Z 0400/0424 33003G12MPS 6000 BKN016CB TEMPO 0400/0404 03003G08MPS 0500 FG VV004 FM040400 35003G13MPS 9999 BKN020CB TEMPO 0404/0415 -TSRA BKN016CB

Radar e precipitação nowcast para 55.31°N 61.5°L

Chuvisco
Leve
Moderado
Forte
Muito forte
Granizo

O marcador do lugar é colocado em 55.31°N 61.5°L. Esta animação mostra o radar de precipitação para a última hora, assim como a 1h previsão. A queda de neve pode ser invisível para o radar. A intensidade da precipitação é codificada por cores, variando do azul claro ao laranja.

Imagens atuais de satélite e precipitação para 55.31°N 61.5°L

O marcador de lugar é colocado em 55.31°N 61.5°L. [Mais]

A imagem de satélite em tempo real combina luz visível durante o dia com radiação infravermelha durante a noite. À noite, a imagem não é escura, pois a radiação infravermelha pode detectar diferenças de temperatura. Infelizmente, nuvens baixas e neblina são difíceis de distinguir das temperaturas do solo e, portanto, podem ser quase invisíveis durante a noite. As imagens de satélite Meteosat para a Europa são atualizadas em tempo real a cada 5 minutos. GOES-16/GOES-17 ( América do Norte e do Sul) e Himawari (Ásia) são atualizadas a cada 10 minutos.

Copyright 2022 EUMETSAT / meteoblue. / Copyright 2022 meteoblue

Voltar ao início